User: anonymous   Login
Location: PFO Observatory
(45.2937°N, 66.0991°W)
Time: 00:40:46
(UTC-04:00)
Language:

Cosmos 1151 Rocket - Orbit

View from above orbital plane
View from above orbital plane
View from above satellite
View from above satellite

Ground track
Ground track

The orbit data is extracted from the following two-line orbital elements,

1 11672U 80005B   17018.54307246  .00000083  00000-0  62544-5 0  9995
2 11672  82.5136 220.6091 0018309  93.6990 266.6322 14.87841253  1147
Epoch (UTC): 18 January 2017 13:02:01
Eccentricity: 0.0018309
inclination: 82.5136°
perigee height: 592 km
apogee height: 617 km
right ascension of ascending node: 220.6091°
argument of perigee: 93.6990°
revolutions per day: 14.87841253
mean anomaly at epoch: 266.6322°
orbit number at epoch: 114

The dashed part of the orbit path shows where the satellite is in the earth's shadow,  

DLR